Starlink 30800

operational
NORAD ID: 58206 Int'l Des: 2023-170 Owner: SPXS Country: US Constellation: starlink
LEOCIRCULAR

Über Starlink 30800

Beschreibung wird geladen...

Live-Position

3D-Globus wird geladen...

Nächste Überflüge

Höhenverlauf

Altitude vs Time

uPlot chart will show altitude changes over time

Zweizeiliger Elementsatz

1 58206U 23170A 26034.03521578 .00000588 00000-0 58589-4 0 9990
2 58206 43.0053 24.4691 0001297 268.4051 91.6643 15.02538230125061
Epoch: 3. Feb. 2026 • Age: 28 hours

Aktueller Status

Höhe 569.3 km
Geschwindigkeit 7.58 km/s
Subsatellitenpunkt -37.48°S, 109.5°E
Startdatum 4. Nov. 2023
Alter 2.2 years
Typ internet

Technische Details

Klassifizierung Payload
Masse 730.00 kg
Trockenmasse 700.00 kg
Gesamtmasse 730.00 kg
Länge 0.30 m
Durchmesser 4.10 m
Spannweite 29.00 m
Form Box + pan
Hersteller SPXS
Bus-Typ Starlink V2M
Phasenstatus In Orbit
Besitzer/Staat SPXS/US

Große Konstellationen

Loading constellations...